Regional Weather Roundup
Issued by NWS

Home | Current Version | Previous Version | Graphics & Text | Print | Product List | Glossary On
Versions: 1 2 3 4 5 6 7 8 9 10 11 12 13 14 15 16 17 18 19 20 21 22 23 24 25 26 27 28 29 30 31 32 33 34 35 36 37 38 39 40 41 42 43 44 45 46 47 48 49 50
000
ASUS43 KBIS 291220
RWRND

NORTH DAKOTA REGIONAL WEATHER ROUNDUP
NATIONAL WEATHER SERVICE BISMARCK ND
700 AM CDT TUE JUL 29 2014

NOTE: "FAIR" INDICATES FEW OR NO CLOUDS BELOW 12,000 FEET WITH NO
SIGNIFICANT WEATHER AND/OR OBSTRUCTIONS TO VISIBILITY.


NDZ001>003-009>011-017-291300-
NORTHWEST NORTH DAKOTA

CITY           SKY/WX    TMP DP  RH WIND       PRES   REMARKS
WILLISTON      CLEAR     54  51  90 CALM      30.20S FOG
6HR MIN TEMP:  53; 6HR MAX TEMP:  67;

MINOT          CLEAR     58  54  86 SW6       30.20F
MINOT AFB      CLEAR     54  54  99 W1        30.20S
$$

NDZ018>021-031>035-040>046-291300-
SOUTHWEST NORTH DAKOTA

CITY           SKY/WX    TMP DP  RH WIND       PRES   REMARKS
BISMARCK       CLEAR     51  49  92 CALM      30.24S
6HR MIN TEMP:  48; 6HR MAX TEMP:  58;

DICKINSON      CLEAR     52  49  89 S6        30.22S
GARRISON         N/A     57  54  89 CALM      30.22F
6HR MIN TEMP:  53; 6HR MAX TEMP:  57;

HETTINGER ARPT CLEAR     48  44  86 CALM      30.25S
$$

NDZ004>008-012>016-024-026-027-054-291300-
NORTHEAST NORTH DAKOTA

CITY           SKY/WX    TMP DP  RH WIND       PRES   REMARKS
GRAND FORKS    PTCLDY    53  51  93 CALM      30.17S
GRND FRKS AFB  CLEAR     55  55  99 W1        30.18S
DEVILS LAKE    CLEAR     55  50  82 CALM      30.20R
$$

NDZ022-023-025-028>030-036>039-047>053-291300-
SOUTHEAST NORTH DAKOTA

CITY           SKY/WX    TMP DP  RH WIND       PRES   REMARKS
FARGO          CLEAR     54  50  86 CALM      30.18S
6HR MIN TEMP:  51; 6HR MAX TEMP:  57;

JAMESTOWN      CLEAR     51  49  92 W3        30.21S
$$




USA.gov is the U.S. government's official web portal to all federal, state and local government web resources and services.